User: anonymous   Login
Location: Melbourne
(37.8170°S, 144.9670°E)
Time: 12:19:47
(UTC+11:00)
Language:

ERBS - Orbit

View from above orbital plane
View from above orbital plane
View from above satellite
View from above satellite

Ground track
Ground track

The orbit data is extracted from the following two-line orbital elements,

1 15354U 84108B   14354.54385457  .00019729  00000-0  63779-3 0  6616
2 15354 057.0139 068.2017 0015197 165.1607 194.9892 15.32054433658144
Epoch (UTC): 20 December 2014 13:03:09
Eccentricity: 0.0015197
inclination: 57.0139°
perigee height: 459 km
apogee height: 480 km
right ascension of ascending node: 68.2017°
argument of perigee: 165.1607°
revolutions per day: 15.32054433
mean anomaly at epoch: 194.9892°
orbit number at epoch: 65814

The dashed part of the orbit path shows where the satellite is in the earth's shadow,  

DLR